CAPE
0 0 0 0 0 0 0 0 0 0 0 0 0 0 0 0 0 0 0 0 0 0 0 0 0 0 0 0 0 0 0 0 0 0 0 0 0 0 0 0 0 0 0 0 0
0 0 0 0 0 0 0 0 0 0 0 0 0 0 0 0 0 0 0 0 0 0 0 0 0 0 0 0 0 0 0 0 0 0 0 0 0 0 0 0 0 0 0 0 0
0 0 0 0 0 0 0 0 0 0 0 0 0 0 0 0 0 0 0 0 0 0 0 0 0 0 0 0 0 0 0 0 0 0 0 0 0 0 0 0 0 0 0 0 0
0 0 0 0 0 0 0 0 0 0 0 0 0 0 0 0 0 0 0 0 0 0 0 0 0 0 0 0 0 0 0 0 0 0 0 0 0 0 0 0 0 0 0 0 0
0 0 0 0 0 0 0 0 0 0 0 0 0 0 0 0 0 0 0 0 0 0 0 0 0 0 0 0 0 0 0 0 0 0 0 0 0 0 0 0 0 0 0 0 0
0 0 0 0 0 0 0 0 0 0 0 0 0 0 0 0 0 0 0 0 0 0 0 0 0 0 0 0 0 0 0 0 0 0 0 0 0 0 0 0 0 0 0 0 0
0 0 0 0 0 0 0 0 0 0 0 0 0 0 0 0 0 0 0 0 0 0 0 0 0 0 0 0 0 0 0 0 0 0 0 0 0 0 0 0 0 0 0 0 0
0 0 0 0 0 0 0 0 0 0 0 0 0 0 0 0 0 0 0 0 0 0 0 0 0 0 0 0 0 0 0 0 0 0 0 0 0 0 0 0 0 0 0 0 0
0 0 0 0 0 0 0 0 0 0 0 0 0 0 0 0 0 0 0 0 0 0 0 0 0 0 0 0 0 0 0 0 0 0 0 0 0 0 0 0 0 0 0 0 0
1 1 0 0 0 0 0 0 0 0 0 0 0 0 0 0 0 0 0 0 0 0 0 0 0 0 0 0 0 0 0 0 0 0 0 0 0 0 0 0 0 0 0 0 0
1 0 0 0 0 0 0 0 0 0 0 0 0 0 0 0 0 0 0 0 0 0 0 0 0 0 0 0 0 0 0 0 0 0 0 0 0 0 0 0 0 0 0 0 0
0 0 0 0 0 1 0 0 0 0 0 0 0 0 0 0 0 0 0 0 0 0 0 0 0 0 0 0 0 0 0 0 0 0 0 0 0 0 0 0 0 0 0 0 0
4 1 2 0 1 1 0 0 0 0 0 0 0 0 0 0 0 0 0 0 0 0 0 0 0 0 0 0 0 0 0 0 0 0 0 0 0 0 0 0 0 0 0 0 0
24 20 4 0 1 0 0 0 0 0 16 0 0 0 0 0 0 0 0 0 0 0 0 0 0 0 0 0 0 0 0 0 0 0 0 0 0 0 0 0 0 0 0 0 0
17 30 11 3 0 2 0 0 0 0 0 0 0 0 0 0 0 0 0 0 0 0 0 0 0 0 0 0 0 0 0 0 0 0 0 0 0 0 0 0 0 0 0 0 0
10 14 20 2 0 0 0 0 0 3 0 0 0 0 0 0 0 0 0 0 0 0 0 0 0 0 0 0 0 0 0 0 0 0 0 0 0 0 0 0 0 0 0 0 0
6 9 14 4 3 0 0 3 51 8 0 0 0 0 0 0 0 0 0 0 0 0 0 0 0 0 0 0 0 0 0 0 0 0 0 0 0 0 0 0 0 0 0 0 0
21 14 9 12 3 0 10 57 35 0 0 0 0 0 0 0 0 0 0 0 0 0 0 0 0 0 0 0 0 0 0 0 0 0 0 0 0 0 0 0 0 0 0 0 0
45 20 4 0 4 4 40 9 4 0 0 0 0 0 0 0 0 0 0 0 0 0 0 0 0 0 0 0 0 0 0 0 0 0 0 0 0 0 0 0 0 0 0 0 0
12 13 0 0 0 4 18 24 5 0 0 0 0 0 0 0 0 0 0 0 0 0 0 0 0 0 0 0 0 0 0 0 0 0 0 0 0 0 0 0 0 0 0 0 0
18 7 0 0 17 11 24 15 0 0 0 1 1 0 0 0 0 0 0 0 0 0 0 0 0 0 0 0 0 0 0 0 0 0 0 0 0 0 0 0 0 0 0 0 0
4 0 0 18 10 2 3 2 1 0 0 0 2 1 0 0 0 0 0 0 0 0 0 0 0 0 0 0 0 0 0 0 0 0 0 0 0 0 0 0 0 0 0 0 0
1 0 0 0 13 14 3 0 1 0 0 0 2 0 22 26 20 0 0 0 0 0 0 0 0 0 0 0 0 0 0 0 0 0 0 0 0 0 0 0 0 0 0 0 0
0 0 0 0 1 7 0 0 8 0 4 10 4 6 7 21 10 14 0 0 0 0 0 0 0 0 0 0 0 0 0 0 0 0 0 0 0 0 0 0 0 0 0 0 0
0 0 0 1 0 0 0 0 0 0 2 2 4 0 0 3 0 0 0 0 0 0 0 0 0 0 0 0 0 0 0 0 0 0 0 0 0 0 0 0 0 0 0 0 0
0 0 1 0 0 0 2 0 0 0 0 0 1 0 1 1 0 0 0 0 0 0 0 0 0 0 0 0 0 0 0 0 0 0 0 0 0 0 0 0 0 0 0 0 0
0 1 0 0 0 0 0 0 0 0 1 0 7 7 11 0 0 0 0 0 0 0 0 0 0 0 0 0 0 0 0 0 0 0 0 0 0 0 0 0 0 0 0 0 0
CIN
-0 -0 -0 -0 -0 -0 -0 -0 -0 -0 -0 -0 -0 -0 -0 -0 -0 -0 -0 -0 -0 -0 -0 -0 -0 -0 -0 -0 -0 -0 -0 -0 -0 -0 -0 -0 -0 -0 -0 -0 -0 -0 -0 -0 -0
-0 -0 -0 -0 -0 -0 -0 -0 -0 -0 -0 -0 -0 -0 -0 -0 -0 -0 -0 -0 -0 -0 -0 -0 -0 -0 -0 -0 -0 -0 -0 -0 -0 -0 -0 -0 -0 -0 -0 -0 -0 -0 -0 -0 -0
-0 -0 -0 -0 -0 -0 -0 -0 -0 -0 -0 -0 -0 -0 -0 -0 -0 -0 -0 -0 -0 -0 -0 -0 -0 -0 -0 -0 -0 -0 -0 -0 -0 -0 -0 -0 -0 -0 -0 -0 -0 -0 -0 -0 -0
-0 -0 -0 -0 -0 -0 -0 -0 -0 -0 -0 -0 -0 -0 -0 -0 -0 -0 -0 -0 -0 -0 -0 -0 -0 -0 -0 -0 -0 -0 -0 -0 -0 -0 -0 -0 -0 -0 -0 -0 -0 -0 -0 -0 -0
-0 -0 -0 -0 -0 -0 -0 -0 -0 -0 -0 -0 -0 -0 -0 -0 -0 -0 -0 -0 -0 -0 -0 -0 -0 -0 -0 -0 -0 -0 -0 -0 -0 -0 -0 -0 -0 -0 -0 -0 -0 -0 -0 -0 -0
-0 -0 -0 -0 -0 -0 -0 -0 -0 -0 -0 -0 -0 -0 -0 -0 -0 -0 -0 -0 -0 -0 -0 -0 -0 -0 -0 -0 -0 -0 -0 -0 -0 -0 -0 -0 -0 -0 -0 -0 -0 -0 -0 -0 -0
-0 -0 -0 -0 -0 -0 -0 -0 -0 -0 -0 -0 -0 -0 -0 -0 -0 -0 -0 -0 -0 -0 -0 -0 -0 -0 -0 -0 -0 -0 -0 -0 -0 -0 -0 -0 -0 -0 -0 -0 -0 -0 -0 -0 -0
-0 -0 -0 -0 -0 -0 -0 -0 -0 -0 -0 -0 -0 -0 -0 -0 -0 -0 -0 -0 -0 -0 -0 -0 -0 -0 -0 -0 -0 -0 -0 -0 -0 -0 -0 -0 -0 -0 -0 -0 -0 -0 -0 -0 -0
-0 -0 -0 -0 -0 -0 -0 -0 -0 -0 -0 -0 -0 -0 -0 -0 -0 -0 -0 -0 -0 -0 -0 -0 -0 -0 -0 -0 -0 -0 -0 -0 -0 -0 -0 -0 -0 -0 -0 -0 -0 -0 -0 -0 -0
-0 -0 -0 -0 -0 -0 -0 -0 -0 -0 -0 -0 -0 -0 -0 -0 -0 -0 -0 -0 -0 -0 -0 -0 -0 -0 -0 -0 -0 -0 -0 -0 -0 -0 -0 -0 -0 -0 -0 -0 -0 -0 -0 -0 -0
-0 -0 -0 -0 -0 -0 -0 -0 -0 -0 -0 -0 -0 -0 -0 -0 -0 -0 -0 -0 -0 -0 -0 -0 -0 -0 -0 -0 -0 -0 -0 -0 -0 -0 -0 -0 -0 -0 -0 -0 -0 -0 -0 -0 -0
-0 -0 -1 -0 -0 -0 -0 -17 -0 -0 -0 -0 -0 -0 -0 -0 -0 -0 -0 -0 -0 -0 -0 -0 -0 -0 -0 -0 -0 -0 -0 -0 -0 -0 -0 -0 -0 -0 -0 -0 -0 -0 -0 -0 -0
-4 -0 -1 -1 -0 -0 -0 -0 -0 -0 -0 -0 -0 -0 -0 -0 -0 -0 -0 -0 -0 -0 -0 -0 -0 -0 -0 -0 -0 -0 -0 -0 -0 -0 -0 -0 -0 -0 -0 -0 -0 -0 -0 -0 -0
-27 -11 -7 -0 -0 -0 -0 -0 -0 -0 -2 -0 -0 -0 -0 -0 -0 -0 -0 -0 -0 -0 -0 -0 -0 -0 -0 -0 -0 -0 -0 -0 -0 -0 -0 -0 -0 -0 -0 -0 -0 -0 -0 -0 -0
-37 -23 -24 -16 -0 -13 -0 -0 -0 -0 -0 -0 -0 -0 -0 -0 -0 -0 -0 -0 -0 -0 -0 -0 -0 -0 -0 -0 -0 -0 -0 -0 -0 -0 -0 -0 -0 -0 -0 -0 -0 -0 -0 -0 -0
-37 -37 -27 -0 -0 -9 -0 -0 -0 -6 -0 -0 -0 -0 -0 -0 -0 -0 -0 -0 -0 -0 -0 -0 -0 -0 -0 -0 -0 -0 -0 -0 -0 -0 -0 -0 -0 -0 -0 -0 -0 -0 -0 -0 -0
-36 -35 -21 -19 -8 -0 -0 -0 -3 -11 -0 -0 -0 -0 -0 -0 -0 -0 -0 -0 -0 -0 -0 -0 -0 -0 -0 -0 -0 -0 -0 -0 -0 -0 -0 -0 -0 -0 -0 -0 -0 -0 -0 -0 -0
-21 -19 -12 -3 -30 -0 -39 -5 -9 -0 -0 -0 -0 -0 -0 -0 -0 -0 -0 -0 -0 -0 -0 -0 -0 -0 -0 -0 -0 -0 -0 -0 -0 -0 -0 -0 -0 -0 -0 -0 -0 -0 -0 -0 -0
-13 -6 -5 -0 -20 -10 -18 -0 -14 -0 -0 -0 -0 -0 -0 -0 -0 -0 -0 -0 -0 -0 -0 -0 -0 -0 -0 -0 -0 -0 -0 -0 -0 -0 -0 -0 -0 -0 -0 -0 -0 -0 -0 -0 -0
-6 -2 -2 -0 -5 -29 -0 -2 -2 -0 -0 -0 -0 -0 -0 -0 -0 -0 -0 -0 -0 -0 -0 -0 -0 -0 -0 -0 -0 -0 -0 -0 -0 -0 -0 -0 -0 -0 -0 -0 -0 -0 -0 -0 -0
-3 -1 -0 -0 -19 -29 -16 -2 -0 -0 -0 -6 -3 -0 -0 -0 -0 -0 -0 -0 -0 -0 -0 -0 -0 -0 -0 -0 -0 -0 -0 -0 -0 -0 -0 -0 -0 -0 -0 -0 -0 -0 -0 -0 -0
-16 -0 -0 -4 -0 -6 -28 -8 -0 -0 -0 -0 -6 -9 -0 -0 -0 -0 -0 -0 -0 -0 -0 -0 -0 -0 -0 -0 -0 -0 -0 -0 -0 -0 -0 -0 -0 -0 -0 -0 -0 -0 -0 -0 -0
-0 -0 -0 -0 -0 -0 -10 -0 -0 -0 -0 -1 -11 -0 -17 -15 -10 -0 -0 -0 -0 -0 -0 -0 -0 -0 -0 -0 -0 -0 -0 -0 -0 -0 -0 -0 -0 -0 -0 -0 -0 -0 -0 -0 -0
-0 -0 -1 -0 -0 -10 -0 -0 -0 -0 -5 -1 -0 -0 -9 -2 -43 -35 -0 -0 -0 -0 -0 -0 -0 -0 -0 -0 -0 -0 -0 -0 -0 -0 -0 -0 -0 -0 -0 -0 -0 -0 -0 -0 -0
-0 -0 -0 -0 -0 -0 -0 -0 -0 -0 -0 -7 -2 -0 -0 -1 -0 -0 -0 -0 -0 -0 -0 -0 -0 -0 -0 -0 -0 -0 -0 -0 -0 -0 -0 -0 -0 -0 -0 -0 -0 -0 -0 -0 -0
-0 -0 -0 -0 -0 -0 -1 -0 -2 -0 -0 -0 -1 -0 -4 -0 -0 -0 -0 -0 -0 -0 -0 -0 -0 -0 -0 -0 -0 -0 -0 -0 -0 -0 -0 -0 -0 -0 -0 -0 -0 -0 -0 -0 -0
-0 -0 -0 -0 -0 -0 -0 -0 -0 -0 -1 -0 -10 -7 -2 -0 -0 -0 -0 -0 -0 -2 -0 -0 -0 -0 -0 -0 -0 -0 -0 -0 -0 -0 -0 -0 -0 -0 -0 -0 -0 -0 -0 -0 -0
Wind_Speed
21 21 22 22 23 24 25 26 28 29 31 32 33 34 35 35 33 25 22 19 20 23 21 20 17 20 16 15 15 13 13 11 10 8 10 13 15 16 16 15 17 18 16 15 18
22 22 23 23 24 24 26 27 29 30 32 34 35 35 36 36 30 22 19 18 20 21 19 20 19 19 15 15 15 13 13 9 8 8 9 11 14 15 15 16 16 15 16 16 17
23 24 24 24 24 25 26 28 29 31 32 34 35 36 36 32 27 20 19 19 20 20 19 19 18 16 15 15 15 13 13 10 10 12 11 13 15 15 16 18 14 11 12 15 17
24 24 24 24 25 25 26 28 29 31 32 34 35 36 36 26 26 19 21 20 21 21 20 19 19 18 17 15 14 15 12 13 14 13 13 15 15 16 20 19 11 11 13 15 18
24 25 26 26 25 26 27 28 30 31 32 33 35 35 28 27 25 22 21 20 21 21 20 19 19 19 20 19 18 14 15 15 15 15 14 13 14 14 15 12 11 12 14 17 18
27 27 26 26 26 27 28 29 30 31 32 32 33 33 27 32 21 23 20 19 19 19 19 18 16 17 19 19 19 18 19 21 17 15 15 10 12 15 13 8 10 12 14 16 18
29 27 26 27 28 29 29 29 30 31 32 33 31 28 28 31 21 23 21 18 18 18 19 18 18 17 17 19 20 20 23 22 17 17 12 9 11 14 5 7 9 11 13 15 17
30 30 28 28 29 30 30 31 32 32 33 31 31 25 29 23 26 29 21 22 19 20 17 20 18 17 16 18 20 19 19 18 17 19 18 8 12 8 5 4 7 9 11 14 17
31 32 31 29 29 28 30 31 31 32 31 31 26 23 31 25 25 21 17 21 20 17 18 18 17 18 17 17 20 17 17 17 19 18 18 12 14 7 6 4 7 9 12 14 16
35 36 35 32 30 29 28 29 28 29 24 22 24 25 21 20 22 21 18 16 16 17 18 18 18 17 16 14 18 16 17 15 16 17 14 13 13 7 9 7 7 9 11 13 16
34 35 36 34 31 29 26 27 28 28 24 24 26 28 26 24 21 20 18 15 16 17 17 18 18 17 11 11 13 18 19 18 16 17 14 13 12 8 9 8 8 9 11 14 16
32 33 34 32 30 24 24 27 26 25 38 33 34 35 31 24 27 21 14 16 15 16 15 18 21 15 15 12 14 18 19 18 18 19 16 16 15 13 11 11 11 11 13 15 17
31 31 31 30 23 24 29 29 22 24 39 41 34 34 31 22 27 24 13 16 17 16 15 17 16 13 13 14 15 17 14 17 19 20 21 21 23 18 17 14 14 15 16 16 17
28 28 28 21 28 28 30 23 20 23 42 43 34 32 25 20 29 20 15 16 19 20 18 22 22 21 18 18 15 18 15 16 18 22 26 22 32 23 18 17 17 16 15 15 17
27 26 22 22 26 30 28 17 17 20 47 29 27 21 18 17 21 20 19 18 18 17 17 21 19 19 20 18 14 19 15 17 21 24 27 25 30 30 18 21 18 17 14 15 17
29 27 23 27 28 27 19 14 15 28 49 33 25 24 22 23 22 18 17 18 19 20 22 23 20 19 20 19 17 13 19 22 24 25 34 26 25 32 25 24 19 17 14 14 16
28 27 25 25 32 23 16 19 39 47 34 41 35 27 28 26 26 21 18 21 21 24 28 28 28 24 19 21 18 19 20 29 32 30 34 26 25 30 23 21 17 14 13 15 16
28 24 26 27 26 19 21 35 51 29 41 26 27 28 33 26 28 27 25 27 27 25 27 29 35 26 23 24 23 21 22 26 34 33 33 25 32 30 24 22 18 15 14 15 16
28 29 29 26 22 21 31 52 52 44 37 42 37 36 37 33 30 30 33 35 31 28 30 29 33 23 22 22 19 24 26 23 28 29 37 34 33 29 23 21 17 15 15 16 16
28 32 35 25 22 26 42 54 48 45 44 43 47 41 45 37 33 31 33 33 35 29 27 28 35 27 22 19 21 22 15 26 26 36 42 35 36 33 25 22 18 18 17 15 17
29 36 31 25 24 34 45 47 42 45 39 43 45 45 47 45 37 37 37 35 27 25 23 25 28 27 22 26 26 23 27 25 24 27 37 43 38 24 24 20 18 17 16 15 17
31 41 26 23 38 39 44 42 34 39 37 39 36 38 45 38 41 41 42 36 25 24 29 28 28 34 32 25 23 24 27 25 32 34 30 34 41 26 25 19 15 14 15 15 16
33 35 27 28 46 47 42 44 42 45 41 40 37 40 36 39 41 37 39 32 28 26 27 24 29 37 34 31 26 28 27 25 27 27 32 36 38 26 23 19 17 15 15 15 16
32 39 36 35 36 39 47 42 42 36 37 37 32 37 37 40 36 41 40 33 32 29 27 22 29 32 40 35 27 29 27 25 25 32 32 35 38 31 26 22 18 16 15 14 16
25 30 32 41 44 44 35 42 45 46 35 35 37 36 30 41 36 35 28 29 26 27 28 25 34 31 33 31 27 28 26 24 27 28 32 38 36 32 24 21 18 16 15 16 17
32 27 22 30 33 40 42 45 42 41 41 43 40 38 39 40 35 32 31 34 36 33 31 30 36 35 38 30 29 32 29 26 27 30 33 35 40 26 24 19 18 16 14 15 15
31 32 24 29 31 35 44 44 46 40 37 41 37 38 41 43 40 42 40 34 32 31 31 32 32 31 37 33 31 38 33 29 30 30 31 37 33 26 24 21 17 14 12 13 14
Wind_Direction
307 310 311 316 319 322 323 324 325 325 324 320 318 315 313 313 308 335 337 337 330 321 323 324 338 326 337 343 332 345 349 340 345 354 0 357 340 344 349 346 336 333 345 355 356
302 305 307 310 313 317 320 321 322 322 322 321 319 317 314 316 324 327 338 342 335 330 338 337 336 336 348 343 334 346 341 343 7 9 358 355 344 338 333 338 342 357 6 10 7
298 300 303 305 311 314 317 317 320 320 320 320 317 315 315 323 320 323 334 335 333 334 336 332 335 342 339 341 337 339 331 349 342 338 342 336 335 338 330 328 334 346 2 2 1
298 300 301 304 307 310 313 315 317 318 320 317 316 315 315 331 311 329 327 327 326 325 329 327 324 326 327 328 334 326 332 333 332 331 328 322 329 331 327 328 356 7 5 7 2
294 296 298 301 304 308 310 312 313 315 320 318 319 319 331 319 315 319 322 323 321 317 321 321 320 321 313 319 322 323 323 329 329 328 323 329 329 330 337 353 6 8 4 1 2
288 291 295 299 302 304 306 308 310 313 316 318 321 318 324 309 323 320 322 322 320 318 315 322 326 323 314 314 315 320 314 311 320 323 324 329 330 327 337 4 358 355 354 355 356
284 288 292 294 297 299 302 304 307 309 308 310 318 322 318 302 314 316 316 314 316 315 310 315 320 320 323 314 317 314 307 309 313 311 315 323 327 327 10 357 346 344 349 351 354
284 283 286 289 292 294 299 301 301 301 303 307 306 317 307 315 307 298 306 296 305 307 310 306 314 321 322 319 315 315 317 315 315 310 311 312 315 333 348 356 347 343 343 345 347
283 282 283 287 290 293 294 297 301 299 302 300 309 318 300 309 301 312 311 291 297 301 305 309 315 312 316 315 313 318 312 313 316 318 314 316 323 324 323 324 330 332 333 337 340
279 275 278 283 285 288 293 297 300 299 309 311 306 306 307 312 310 305 312 306 304 299 299 303 307 307 310 311 306 315 312 316 314 322 325 319 325 335 324 321 330 336 335 336 339
279 278 275 277 282 284 288 295 292 295 299 293 298 295 304 307 314 306 307 313 302 301 296 301 299 297 307 311 316 317 314 312 320 327 324 320 321 324 321 317 318 324 330 333 336
280 279 277 277 279 282 285 283 289 298 290 288 288 287 290 299 295 299 305 302 301 298 300 298 294 299 305 314 310 308 310 311 317 321 320 316 313 317 317 313 312 316 322 325 329
280 280 279 278 281 277 275 280 298 303 289 286 286 286 288 279 283 282 284 291 294 291 290 290 303 317 298 299 305 309 307 310 311 316 316 312 303 301 309 309 310 313 318 320 324
284 281 280 278 273 274 273 280 297 304 285 283 285 287 282 283 281 274 261 282 287 285 284 289 287 288 295 297 297 299 307 311 313 312 306 311 303 301 297 297 300 306 312 317 323
279 282 275 270 276 271 277 273 290 294 276 288 283 292 289 276 291 282 269 270 273 281 285 289 293 287 283 288 293 298 310 312 311 308 307 303 305 307 304 297 293 297 304 311 319
275 273 272 273 272 278 279 266 274 272 268 279 283 281 278 275 287 294 271 274 276 279 284 284 295 295 294 293 287 301 305 310 310 307 298 298 296 304 304 303 298 299 302 309 316
274 273 267 269 268 269 266 260 259 256 273 274 274 276 275 273 273 277 265 251 264 271 272 281 280 287 291 293 294 291 293 297 300 296 296 310 298 296 308 313 308 295 300 310 317
272 273 272 268 270 260 258 257 257 257 254 279 283 275 270 273 274 272 269 264 261 272 284 274 282 272 278 278 286 281 281 290 296 297 301 308 301 307 316 315 313 306 309 315 317
266 269 270 267 265 252 255 249 251 257 267 264 275 278 273 273 277 271 269 268 265 258 272 281 283 291 289 282 271 284 278 291 295 302 299 299 303 309 314 315 313 309 310 311 316
261 264 265 264 256 254 251 255 255 258 263 268 265 267 269 271 269 269 269 275 270 259 267 280 283 289 284 286 286 278 287 290 291 293 295 300 301 301 307 306 307 305 304 309 316
260 262 268 254 252 253 251 253 257 259 260 261 266 266 266 267 269 268 272 274 272 265 252 273 280 287 285 277 273 278 279 291 294 292 295 299 302 313 310 307 301 299 301 306 313
258 258 266 248 245 251 251 251 256 260 258 263 268 269 265 269 269 265 266 271 273 267 265 264 279 274 278 292 285 278 280 278 285 292 295 298 298 316 317 312 303 300 301 307 314
258 256 265 254 248 247 254 256 254 258 259 256 265 262 270 269 268 270 269 274 274 268 269 264 271 275 281 284 287 279 280 280 287 293 288 295 301 320 321 315 305 298 302 309 317
254 256 256 252 255 252 247 252 250 255 259 253 266 263 266 266 269 272 271 276 273 269 268 266 271 264 271 283 287 278 274 275 278 287 292 289 300 306 311 310 308 302 302 310 318
259 261 252 249 249 245 253 251 249 250 256 256 260 259 270 261 268 267 278 271 277 275 270 269 267 271 278 282 279 282 280 275 275 281 288 298 297 303 304 303 299 302 304 310 316
249 254 260 259 252 246 248 249 248 252 253 255 258 261 258 262 265 274 275 282 279 276 274 266 264 275 277 276 281 278 282 279 281 290 291 296 298 309 311 308 303 296 297 307 316
255 255 260 262 259 253 249 249 249 252 258 257 259 261 262 263 265 268 270 274 278 279 274 264 264 268 271 278 277 276 277 281 289 292 294 294 300 309 309 302 296 293 297 307 319